GW7154 Weather Reports


Display with metric or nautical units.
time (UTC)temp
F
wind
direction
speed
MPH
gust
MPH
rain 1hr
in
rain 24hr
in
rain mn
in
humidity
%
barometer
mb
20260507010456 65 136 0.0 0.0 0.00 0.02 0.02 88 1007.1
20260507005953 65 136 0.0 0.0 0.00 0.02 0.02 88 1006.8
20260507005451 66 136 0.0 0.0 0.00 0.02 0.02 88 1006.8
20260507004947 66 136 0.0 0.0 0.00 0.02 0.02 87 1006.8
20260507004444 66 136 0.0 0.0 0.00 0.02 0.02 87 1006.8
20260507003942 66 136 0.0 0.0 0.00 0.02 0.02 88 1006.8
20260507003436 65 136 0.0 0.0 0.00 0.02 0.02 88 1006.8
20260507002931 66 223 0.0 0.0 0.00 0.02 0.02 88 1006.8
20260507002428 65 192 0.0 0.0 0.00 0.02 0.02 87 1006.8
20260507001925 65 242 0.0 0.0 0.00 0.02 0.02 88 1006.8
20260507001422 65 228 0.0 0.0 0.00 0.02 0.02 88 1006.8
20260507000920 65 190 0.0 0.0 0.00 0.02 0.02 87 1006.8
20260507000415 66 190 0.0 0.0 0.00 0.02 0.02 87 1006.8
20260506235911 66 191 0.0 0.0 0.00 0.02 0.02 86 1006.1
20260506235409 66 276 0.0 0.0 0.00 0.02 0.02 86 1006.1
20260506234903 67 274 0.0 0.0 0.00 0.02 0.02 85 1006.1
20260506234402 67 238 0.0 0.0 0.00 0.02 0.02 84 1006.1
20260506233859 67 244 0.0 0.0 0.00 0.02 0.02 83 1006.1
20260506233355 67 342 0.0 0.0 0.00 0.02 0.02 84 1006.1
20260506232852 67 210 0.0 0.0 0.00 0.02 0.02 84 1006.1
20260506232348 67 336 0.0 0.0 0.00 0.02 0.02 83 1006.1
20260506231844 68 215 0.0 0.0 0.00 0.02 0.02 83 1006.4
20260506231342 68 215 0.0 0.0 0.00 0.02 0.02 82 1006.1
20260506230839 68 108 0.0 0.0 0.00 0.02 0.02 82 1006.1
20260506230336 68 173 0.0 0.0 0.00 0.02 0.02 81 1006.1
20260506225832 69 262 0.0 0.0 0.00 0.02 0.02 81 1006.1
20260506225330 69 194 0.0 0.0 0.00 0.02 0.02 81 1006.4
20260506224826 69 276 0.0 0.0 0.00 0.02 0.02 81 1006.1
20260506224323 69 145 0.0 0.0 0.00 0.02 0.02 80 1006.1
20260506223820 69 87 0.0 0.0 0.00 0.02 0.02 80 1006.1
20260506223315 69 186 2.0 2.0 0.00 0.02 0.02 80 1006.1
20260506222813 70 156 3.0 3.0 0.00 0.02 0.02 79 1006.1
20260506222308 70 197 0.0 0.0 0.00 0.02 0.02 80 1006.1
20260506221806 69 175 0.0 0.0 0.00 0.02 0.02 79 1006.4
20260506221303 70 155 3.0 3.0 0.00 0.02 0.02 78 1006.1
20260506220801 69 29 0.0 0.0 0.00 0.02 0.02 78 1005.8
20260506220301 70 239 2.0 2.0 0.00 0.02 0.02 78 1006.1
20260506215758 70 312 0.0 0.0 0.00 0.02 0.02 77 1006.4
20260506215254 70 140 3.0 3.0 0.00 0.02 0.02 78 1006.1
20260506214750 70 66 0.0 0.0 0.00 0.02 0.02 77 1005.8
20260506214247 69 204 0.0 0.0 0.00 0.02 0.02 78 1005.8
20260506213746 70 143 3.0 4.0 0.00 0.02 0.02 78 1006.1
20260506213242 70 107 0.0 0.0 0.00 0.02 0.02 78 1006.1
20260506212740 69 60 1.0 1.0 0.00 0.02 0.02 79 1005.8
20260506212236 69 223 2.0 2.0 0.00 0.02 0.02 78 1006.1
20260506211731 70 101 2.0 2.0 0.00 0.02 0.02 78 1005.8
20260506211227 70 294 2.0 2.0 0.00 0.02 0.02 79 1005.8
20260506210725 70 121 0.0 0.0 0.00 0.02 0.02 77 1006.1
20260506210221 70 50 2.0 2.0 0.00 0.02 0.02 77 1005.8
20260506205719 70 156 0.0 0.0 0.00 0.02 0.02 77 1005.8
20260506205214 70 42 0.0 0.0 0.00 0.02 0.02 76 1005.4
20260506204711 70 270 0.0 0.0 0.00 0.02 0.02 78 1005.4
20260506204208 70 112 1.0 1.0 0.00 0.02 0.02 76 1005.4
20260506203706 69 311 0.0 0.0 0.00 0.02 0.02 78 1005.4
20260506203203 69 192 3.0 4.0 0.00 0.02 0.02 76 1005.1
20260506202701 70 247 2.0 2.0 0.00 0.02 0.02 75 1005.4
20260506202156 71 172 2.0 2.0 0.00 0.02 0.02 75 1005.4
20260506201654 71 178 0.0 0.0 0.00 0.02 0.02 78 1005.8
20260506201150 71 255 2.0 2.0 0.00 0.02 0.02 75 1005.4
20260506200647 71 66 2.0 2.0 0.00 0.02 0.02 74 1005.4
20260506200144 70 246 1.0 1.0 0.00 0.02 0.02 75 1005.8
20260506195641 70 178 2.0 2.0 0.00 0.02 0.02 77 1005.8
20260506195137 70 199 2.0 2.0 0.00 0.02 0.02 75 1005.8
20260506194634 71 256 6.0 6.0 0.00 0.02 0.02 75 1005.4
20260506194130 72 210 0.0 0.0 0.00 0.02 0.02 74 1005.4
20260506193628 72 18 5.0 6.0 0.00 0.02 0.02 71 1005.8
20260506193125 71 205 2.0 2.0 0.00 0.02 0.02 74 1005.8
20260506192622 70 319 0.0 0.0 0.00 0.02 0.02 77 1005.8
20260506192118 69 339 0.0 0.0 0.00 0.02 0.02 76 1006.1
20260506191615 69 134 3.0 3.0 0.00 0.02 0.02 77 1005.8
20260506191111 69 84 2.0 2.0 0.00 0.02 0.02 77 1006.1
20260506190609 69 239 2.0 2.0 0.00 0.02 0.02 78 1006.1
20260506190105 69 191 0.0 0.0 0.00 0.02 0.02 76 1006.1
20260506185602 69 217 2.0 2.0 0.00 0.02 0.02 77 1006.1
20260506185059 69 194 4.0 4.0 0.00 0.02 0.02 79 1006.1
20260506184556 69 70 0.0 0.0 0.00 0.02 0.02 79 1006.1
20260506184053 68 108 2.0 2.0 0.00 0.02 0.02 78 1006.1
20260506183549 68 264 2.0 2.0 0.00 0.02 0.02 78 1006.4
20260506183046 68 78 2.0 2.0 0.00 0.02 0.02 78 1006.4
20260506182543 68 336 0.0 0.0 0.00 0.02 0.02 77 1006.1
20260506182040 68 65 0.0 0.0 0.00 0.02 0.02 79 1006.4
20260506181538 68 246 1.0 1.0 0.00 0.02 0.02 80 1006.4
20260506181035 68 62 2.0 2.0 0.00 0.02 0.02 80 1006.8
20260506180531 68 192 2.0 2.0 0.00 0.02 0.02 80 1006.4
20260506180028 67 158 4.0 5.0 0.00 0.02 0.02 82 1006.8
20260506175525 67 170 6.0 6.0 0.00 0.02 0.02 81 1006.4
20260506175021 67 316 2.0 2.0 0.00 0.02 0.02 81 1006.4
20260506174520 67 186 5.0 5.0 0.00 0.02 0.02 82 1006.8
20260506174015 67 139 6.0 7.0 0.00 0.02 0.02 83 1006.8
20260506173513 67 301 0.0 0.0 0.00 0.02 0.02 84 1006.8
20260506173010 67 150 3.0 3.0 0.00 0.02 0.02 84 1006.4
20260506172508 67 251 2.0 2.0 0.00 0.02 0.02 84 1006.8
20260506172003 66 76 0.0 0.0 0.00 0.02 0.02 82 1007.1
20260506171501 65 200 2.0 2.0 0.00 0.02 0.02 86 1007.4
20260506170959 65 66 2.0 2.0 0.00 0.02 0.02 89 1006.8
20260506170455 64 177 2.0 2.0 0.00 0.02 0.02 88 1007.1
20260506165953 64 182 2.0 2.0 0.00 0.02 0.02 88 1007.1
20260506165452 64 180 0.0 0.0 0.00 0.02 0.02 89 1007.1
20260506164947 64 298 3.0 3.0 0.00 0.02 0.02 88 1007.1
20260506164444 64 293 2.0 2.0 0.00 0.02 0.02 88 1007.1
20260506163942 64 169 2.0 2.0 0.00 0.02 0.02 89 1007.1
20260506163437 64 257 0.0 0.0 0.00 0.02 0.02 89 1007.4
20260506162932 65 252 4.0 4.0 0.00 0.02 0.02 89 1007.1
20260506162430 65 258 2.0 2.0 0.00 0.02 0.02 88 1007.8
20260506161927 64 180 0.0 0.0 0.00 0.02 0.02 89 1007.4
20260506161426 64 161 2.0 2.0 0.00 0.02 0.02 89 1007.4
20260506160923 64 174 2.0 2.0 0.00 0.02 0.02 89 1007.8
20260506160420 64 246 0.0 0.0 0.00 0.02 0.02 89 1007.8
20260506155917 64 240 2.0 2.0 0.02 0.02 0.02 89 1008.1
20260506155415 65 276 2.0 2.0 0.02 0.02 0.02 86 1008.5
20260506153536 66 300 0.0 0.0 0.00 0.00 0.00 81 1008.5
20260506153034 66 198 2.0 2.0 0.00 0.00 0.00 83 1008.5
20260506152530 66 235 2.0 2.0 0.00 0.00 0.00 80 1008.5
20260506152029 67 204 2.0 2.0 0.00 0.00 0.00 78 1008.1
20260506151526 67 144 0.0 0.0 0.00 0.00 0.00 75 1008.5
20260506151023 67 199 2.0 2.0 0.00 0.00 0.00 75 1008.5
20260506150519 67 209 1.0 1.0 0.00 0.00 0.00 78 1008.5
20260506150016 67 193 0.0 0.0 0.00 0.00 0.00 73 1008.5
20260506145513 68 42 0.0 0.0 0.00 0.00 0.00 72 1008.5
20260506145010 69 95 2.0 2.0 0.00 0.00 0.00 68 1008.5
20260506144507 70 192 2.0 2.0 0.00 0.00 0.00 65 1008.1
20260506144005 70 57 2.0 2.0 0.00 0.00 0.00 67 1008.1
20260506143502 70 94 3.0 3.0 0.00 0.00 0.00 65 1008.5
20260506143000 70 173 4.0 4.0 0.00 0.00 0.00 66 1008.5
20260506142458 70 334 2.0 2.0 0.00 0.00 0.00 66 1008.5
20260506141955 70 161 6.0 6.0 0.00 0.00 0.00 63 1008.5
20260506141453 69 123 2.0 2.0 0.00 0.00 0.00 64 1008.5
20260506140952 69 312 3.0 3.0 0.00 0.00 0.00 66 1008.1
20260506140448 69 322 2.0 2.0 0.00 0.00 0.00 66 1008.5
20260506135945 69 232 3.0 4.0 0.00 0.00 0.00 64 1008.1
20260506135442 70 163 5.0 5.0 0.00 0.00 0.00 64 1008.5
20260506134938 70 168 2.0 2.0 0.00 0.00 0.00 66 1008.1
20260506134434 70 348 4.0 4.0 0.00 0.00 0.00 64 1007.8
20260506133931 69 151 0.0 0.0 0.00 0.00 0.00 63 1008.5
20260506133429 69 169 4.0 4.0 0.00 0.00 0.00 65 1008.1
20260506132925 69 129 0.0 0.0 0.00 0.00 0.00 66 1008.5
20260506132422 69 174 2.0 2.0 0.00 0.00 0.00 65 1008.1
20260506131920 69 290 2.0 2.0 0.00 0.00 0.00 64 1007.8
20260506131416 69 252 2.0 2.0 0.00 0.00 0.00 65 1008.1
20260506130913 69 222 2.0 2.0 0.00 0.00 0.00 65 1007.8
20260506130409 68 285 0.0 0.0 0.00 0.00 0.00 66 1008.1
20260506125908 68 251 2.0 2.0 0.00 0.00 0.00 68 1008.5
20260506125406 68 201 7.0 7.0 0.00 0.00 0.00 67 1008.5
20260506124904 68 221 2.0 2.0 0.00 0.00 0.00 68 1008.5
20260506124401 68 116 1.0 1.0 0.00 0.00 0.00 67 1008.5
20260506123858 68 18 2.0 2.0 0.00 0.00 0.00 67 1008.5
20260506123356 68 174 4.0 4.0 0.00 0.00 0.00 67 1008.8
20260506122853 68 28 2.0 2.0 0.00 0.00 0.00 67 1008.5
20260506122350 68 173 2.0 2.0 0.00 0.00 0.00 67 1008.5
20260506121848 68 156 4.0 4.0 0.00 0.00 0.00 67 1008.5
20260506121345 68 0 2.0 2.0 0.00 0.00 0.00 67 1008.1
20260506120842 69 241 6.0 6.0 0.00 0.00 0.00 64 1008.5
20260506120340 69 180 1.0 1.0 0.00 0.00 0.00 69 1008.5
20260506115837 68 174 5.0 6.0 0.00 0.00 0.00 67 1008.8
20260506115335 67 92 0.0 0.0 0.00 0.00 0.00 67 1008.5
20260506114833 66 150 2.0 2.0 0.00 0.00 0.00 69 1008.1
20260506114330 66 289 2.0 2.0 0.00 0.00 0.00 73 1008.5
20260506113829 66 34 0.0 0.0 0.00 0.00 0.00 72 1008.5
20260506113326 65 60 0.0 0.0 0.00 0.00 0.00 72 1008.1
20260506112823 65 69 0.0 0.0 0.00 0.00 0.00 74 1008.5
20260506112320 65 304 1.0 1.0 0.00 0.00 0.00 75 1008.5
20260506111817 65 317 2.0 2.0 0.00 0.00 0.00 75 1008.5
20260506111315 65 265 1.0 1.0 0.00 0.00 0.00 73 1008.1
20260506110812 65 196 3.0 3.0 0.00 0.00 0.00 74 1008.5
20260506110309 65 196 0.0 0.0 0.00 0.00 0.00 76 1008.8
20260506105806 65 149 2.0 2.0 0.00 0.00 0.00 74 1008.5
20260506105305 65 197 2.0 2.0 0.00 0.00 0.00 75 1008.1
20260506104800 65 311 2.0 2.0 0.00 0.00 0.00 77 1007.8
20260506104258 64 6 0.0 0.0 0.00 0.00 0.00 76 1008.1
20260506103755 64 169 2.0 2.0 0.00 0.00 0.00 78 1008.1
20260506103252 64 306 2.0 2.0 0.00 0.00 0.00 78 1008.1
20260506102750 64 244 2.0 2.0 0.00 0.00 0.00 78 1008.1
20260506102248 64 186 1.0 1.0 0.00 0.00 0.00 78 1008.1
20260506101744 64 180 3.0 3.0 0.00 0.00 0.00 78 1008.1
20260506101241 64 222 2.0 2.0 0.00 0.00 0.00 78 1008.1
20260506100739 63 192 1.0 1.0 0.00 0.00 0.00 79 1008.5
20260506100237 64 66 0.0 0.0 0.00 0.00 0.00 79 1008.1
20260506095735 64 192 0.0 0.0 0.00 0.00 0.00 80 1008.5
20260506095232 64 171 2.0 2.0 0.00 0.00 0.00 78 1008.5
20260506094728 63 209 0.0 0.0 0.00 0.00 0.00 78 1008.5
20260506094227 64 310 0.0 0.0 0.00 0.00 0.00 80 1008.1
20260506093725 64 321 3.0 3.0 0.00 0.00 0.00 79 1008.1
20260506093222 64 224 2.0 2.0 0.00 0.00 0.00 78 1008.1
20260506092720 64 48 0.0 0.0 0.00 0.00 0.00 80 1008.1
20260506092217 64 291 0.0 0.0 0.00 0.00 0.00 79 1008.1
20260506091715 64 186 2.0 2.0 0.00 0.00 0.00 79 1008.5
20260506091212 64 155 2.0 2.0 0.00 0.00 0.00 79 1008.1
20260506090709 64 182 0.0 0.0 0.00 0.00 0.00 80 1008.5
20260506090206 64 6 0.0 0.0 0.00 0.00 0.00 81 1008.1
20260506085703 64 192 2.0 2.0 0.00 0.00 0.00 79 1008.1
20260506085159 64 277 2.0 2.0 0.00 0.00 0.00 79 1008.5
20260506084656 64 282 2.0 2.0 0.00 0.00 0.00 79 1008.1
20260506084152 64 227 0.0 0.0 0.00 0.00 0.00 80 1008.1
20260506083649 64 60 1.0 1.0 0.00 0.00 0.00 79 1008.1
20260506083147 65 270 0.0 0.0 0.00 0.00 0.00 79 1008.1
20260506082644 64 177 4.0 4.0 0.00 0.00 0.00 79 1008.1
20260506082139 65 162 2.0 2.0 0.00 0.00 0.00 79 1008.5
20260506081637 65 318 0.0 0.0 0.00 0.00 0.00 80 1008.5
20260506081135 65 42 0.0 0.0 0.00 0.00 0.00 78 1008.8
20260506080632 65 311 3.0 3.0 0.00 0.00 0.00 79 1008.8
20260506080129 65 17 0.0 0.0 0.00 0.00 0.00 80 1008.8
20260506073113 65 201 2.0 2.0 0.00 0.00 0.00 78 1008.5
20260506072609 65 190 0.0 0.0 0.00 0.00 0.00 78 1008.8
20260506072107 66 216 5.0 6.0 0.00 0.00 0.00 77 1008.8
20260506071605 66 111 4.0 4.0 0.00 0.00 0.00 77 1008.5
20260506071102 66 192 2.0 2.0 0.00 0.00 0.00 77 1008.8
20260506070559 66 203 2.0 2.0 0.00 0.00 0.00 76 1008.8
20260506062033 67 7 0.0 0.0 0.00 0.00 0.00 75 1008.5
20260506061529 67 176 3.0 4.0 0.00 0.00 0.00 74 1008.8
20260506061027 67 202 2.0 2.0 0.00 0.00 0.00 75 1008.5
20260506060525 67 264 1.0 1.0 0.00 0.00 0.00 73 1008.8
20260506050954 69 59 0.0 0.0 0.00 0.00 0.00 71 1008.8
20260506050452 69 170 3.0 4.0 0.00 0.00 0.00 71 1009.1
20260506044942 69 284 0.0 0.0 0.00 0.00 0.00 71 1009.1
20260506044440 69 158 0.0 0.0 0.00 0.00 0.00 72 1009.1
20260506043937 69 152 3.0 3.0 0.00 0.00 0.00 71 1009.1
20260506043434 69 356 0.0 0.0 0.00 0.00 0.00 71 1009.1
20260506042932 68 289 2.0 2.0 0.00 0.00 0.00 70 1009.1
20260506042431 68 102 0.0 0.0 0.00 0.00 0.00 71 1009.1
20260506041929 68 161 0.0 0.0 0.00 0.00 0.00 71 1009.1
20260506041426 69 155 0.0 0.0 0.00 0.00 0.00 71 1009.1
20260506040923 69 217 0.0 0.0 0.00 0.00 0.00 70 1009.1
20260506040421 69 332 0.0 0.0 0.00 0.00 0.00 70 1009.1
20260506035916 69 90 2.0 2.0 0.00 0.00 0.00 70 1009.1
20260506035414 69 174 2.0 2.0 0.00 0.00 0.00 70 1009.1
20260506034911 69 289 2.0 2.0 0.00 0.00 0.00 68 1009.1
20260506034408 69 186 2.0 2.0 0.00 0.00 0.00 69 1009.1
20260506033905 69 180 3.0 3.0 0.00 0.00 0.00 67 1009.1
20260506033402 69 253 0.0 0.0 0.00 0.00 0.00 67 1009.1
20260506032859 69 199 3.0 3.0 0.00 0.00 0.00 65 1009.1
20260506032356 69 191 0.0 0.0 0.00 0.00 0.00 66 1009.5
20260506031853 69 325 2.0 2.0 0.00 0.00 0.00 65 1009.1
20260506031350 70 228 0.0 0.0 0.00 0.00 0.00 64 1009.5
20260506030848 69 327 2.0 2.0 0.00 0.00 0.00 64 1009.1
20260506030345 69 256 0.0 0.0 0.00 0.00 0.00 64 1009.1
20260506025842 70 228 1.0 1.0 0.00 0.00 0.00 62 1009.1
20260506025338 70 284 2.0 2.0 0.00 0.00 0.00 63 1009.1
20260506024836 70 191 1.0 1.0 0.00 0.00 0.00 63 1009.1
20260506024332 70 216 1.0 1.0 0.00 0.00 0.00 62 1009.5
20260506023829 70 186 2.0 2.0 0.00 0.00 0.00 62 1009.5
20260506023325 70 257 4.0 4.0 0.00 0.00 0.00 61 1009.5
20260506022822 70 114 0.0 0.0 0.00 0.00 0.00 63 1009.5
20260506022320 71 115 0.0 0.0 0.00 0.00 0.00 60 1009.5
20260506021818 70 245 3.0 3.0 0.00 0.00 0.00 59 1009.5
20260506021314 70 202 2.0 2.0 0.00 0.00 0.00 60 1009.1
20260506020811 71 204 0.0 0.0 0.00 0.00 0.00 60 1009.1
20260506020309 70 180 0.0 0.0 0.00 0.00 0.00 61 1009.1
20260506015807 71 53 2.0 2.0 0.00 0.00 0.00 60 1009.1
20260506015306 71 175 0.0 0.0 0.00 0.00 0.00 59 1009.1
20260506014800 71 230 2.0 2.0 0.00 0.00 0.00 58 1009.1
20260506014257 71 12 2.0 2.0 0.00 0.00 0.00 56 1008.8
20260506013754 72 221 1.0 1.0 0.00 0.00 0.00 55 1009.1
20260506013251 72 275 0.0 0.0 0.00 0.00 0.00 57 1008.8
20260506012748 72 37 0.0 0.0 0.00 0.00 0.00 54 1008.8
20260506012244 72 256 0.0 0.0 0.00 0.00 0.00 55 1008.8
20260506011742 73 203 2.0 2.0 0.00 0.00 0.00 53 1008.8
20260506011238 72 271 2.0 2.0 0.00 0.00 0.00 53 1008.8